Weather History for Muncie, IN

Change the Weather History Date:

Thursday, January 30, 2014

  Actual Average Record
Temperature  
Mean Temperature 23 °F 27 °F  
Max Temperature 31 °F 34 °F 67 °F (2013)
Min Temperature 14 °F 19 °F -13 °F (1966)
Degree Days  
Heating Degree Days 42 38  
Month to date heating degree days 1291 1159  
Since 1 July heating degree days 3631 3357  
Cooling Degree Days 0 0  
Month to date cooling degree days 0 0  
Year to date cooling degree days 0 0  
Moisture  
Dew Point 6 °F    
Average Humidity 50    
Maximum Humidity 58    
Minimum Humidity 42    
Precipitation  
Precipitation T in 0.08 in 0.98 in (1969)
Month to date precipitation 0.63 2.15  
Year to date precipitation 0.63 2.15  
Sea Level Pressure  
Sea Level Pressure 30.04 in    
Wind  
Wind Speed 15 mph (SSW)    
Max Wind Speed 26 mph    
Max Gust Speed 37 mph    
Visibility 10 miles    
Events      
T = Trace of Precipitation, MM = Missing Value Source: NWS Daily Summary

Daily Weather History Graph

Daily Weather History Graph

Search for Another Location

Airport:

Trip Planner

Search our weather history database for the weather conditions in past years. The results will help you decide how hot, cold, wet, or windy it might be!

Date:

Astronomy

Jan. 30, 2014 Rise Set
Actual Time 7:52 AM EST 5:57 PM EST
Civil Twilight 7:23 AM EST 6:26 PM EST
Nautical Twilight 6:50 AM EST 6:59 PM EST
Astronomical Twilight 6:18 AM EST 7:31 PM EST
Moon 7:17 AM EST (1/30) 6:08 PM EST (1/30)
Length of Visible Light 11h 03m
Length of Day
10h 05m
Waning Crescent, 0% of the Moon is Illuminated
Jan 30
Waning Crescent
Jan 30
New
Feb 6
First Quarter
Feb 14
Full
Feb 22
Last Quarter

Hourly Weather History & Observations

Time (EST) Temp. Windchill Dew Point Humidity Pressure Visibility Wind Dir Wind Speed Gust Speed Precip Events Conditions
12:53 AM 14.0 °F 1.2 °F 1.0 °F 56% 30.21 in 10.0 mi SSW 10.4 mph - N/A   Clear
1:53 AM 15.1 °F 2.5 °F 1.0 °F 54% 30.19 in 10.0 mi SSW 10.4 mph 19.6 mph N/A   Clear
2:53 AM 16.0 °F 2.9 °F 1.0 °F 52% 30.19 in 10.0 mi SSW 11.5 mph 19.6 mph N/A   Clear
3:53 AM 15.1 °F -0.1 °F -0.0 °F 51% 30.17 in 10.0 mi South 15.0 mph - N/A   Clear
4:53 AM 15.1 °F 0.5 °F -0.0 °F 51% 30.18 in 10.0 mi SSW 13.8 mph - N/A   Clear
5:53 AM 14.0 °F 1.2 °F -0.0 °F 54% 30.19 in 10.0 mi SSW 10.4 mph - N/A   Clear
6:53 AM 14.0 °F -0.2 °F -0.0 °F 54% 30.17 in 10.0 mi South 12.7 mph 20.7 mph N/A   Clear
7:53 AM 14.0 °F -0.2 °F -0.0 °F 54% 30.15 in 10.0 mi South 12.7 mph 20.7 mph N/A   Clear
8:53 AM 16.0 °F 1.1 °F 1.0 °F 52% 30.17 in 10.0 mi SSW 15.0 mph 27.6 mph N/A   Clear
9:53 AM 18.0 °F 3.1 °F 1.9 °F 50% 30.12 in 10.0 mi South 16.1 mph 28.8 mph N/A   Clear
10:53 AM 19.9 °F 4.8 °F 3.9 °F 50% 30.09 in 10.0 mi SSW 18.4 mph 27.6 mph N/A   Clear
11:53 AM 21.9 °F 6.9 °F 5.0 °F 48% 30.04 in 10.0 mi South 19.6 mph 28.8 mph N/A   Clear
12:53 PM 25.0 °F 11.7 °F 7.0 °F 46% 30.00 in 10.0 mi South 17.3 mph 28.8 mph N/A   Clear
1:53 PM 26.1 °F 12.0 °F 7.0 °F 44% 29.95 in 10.0 mi SSW 20.7 mph 33.4 mph N/A   Clear
2:53 PM 26.1 °F 12.7 °F 8.1 °F 47% 29.90 in 10.0 mi South 18.4 mph 28.8 mph N/A   Clear
3:53 PM 27.0 °F 12.2 °F 8.1 °F 45% 29.84 in 10.0 mi South 24.2 mph 33.4 mph N/A   Clear
4:53 PM 28.0 °F 15.3 °F 8.1 °F 43% 29.83 in 10.0 mi South 18.4 mph 29.9 mph N/A   Clear
5:53 PM 28.9 °F 16.9 °F 8.1 °F 41% 29.89 in 10.0 mi SSW 17.3 mph 27.6 mph N/A   Clear
6:53 PM 28.9 °F 17.7 °F 9.0 °F 43% 29.90 in 10.0 mi SSW 15.0 mph 31.1 mph N/A   Partly Cloudy
7:53 PM 30.0 °F 21.7 °F 10.0 °F 43% 29.93 in 10.0 mi SW 9.2 mph - N/A   Mostly Cloudy
8:53 PM 30.0 °F 19.5 °F 14.0 °F 51% 29.95 in 10.0 mi SW 13.8 mph 25.3 mph 0.00 in   Overcast
9:53 PM 30.0 °F 20.0 °F 15.1 °F 54% 29.94 in 10.0 mi SW 12.7 mph - N/A   Mostly Cloudy
10:53 PM 30.9 °F 21.7 °F 14.0 °F 50% 29.94 in 10.0 mi SW 11.5 mph - N/A   Overcast
11:53 PM 30.9 °F 21.2 °F 12.9 °F 47% 29.95 in 10.0 mi SW 12.7 mph - N/A   Overcast